Miscellaneous Local Product
Issued by NWS North Platte, NE

Home | Current Version | Previous Version | Text Only | Print | Product List | Glossary On
Versions: 1 2 3 4 5 6 7 8 9 10 11 12 13 14 15 16 17 18 19 20 21 22 23 24 25 26 27 28 29 30 31 32 33 34 35 36 37 38 39 40 41 42 43 44 45 46 47 48 49 50
645
AXUS43 KLBF 300310
MISLBF


WESTERN AND NORTH CENTRAL NEBRASKA HOURLY WEATHER ROUNDUP
NATIONAL WEATHER SERVICE NORTH PLATTE NE
1000 PM CDT FRI APR 29 2016

NOTE: "FAIR" INDICATES FEW OR NO CLOUDS BELOW 12,000 FEET WITH NO
SIGNIFICANT WEATHER AND/OR OBSTRUCTIONS TO VISIBILITY.

NOTE: STATIONS NOT REPORTING VARIABLES SUCH AS SKY/WEATHER OR
PRESSURE ARE PROVIDED BY RAWS AND APRS NETWORKS AND ARE NOT UNDER
NATIONAL WEATHER SERVICE QUALITY CONTROL.

...OBSERVATIONS IN AND NEAR THE EASTERN PANHANDLE OF NEBRASKA...

CITY           SKY/WX    TMP DP  RH WIND       PRES   REMARKS
PINE RIDGE     CLOUDY    38  34  85 NE10      29.98F WCI  31
CHADRON        CLOUDY    38  36  92 NE13      29.99R FOG     WCI  30
ALLIANCE       LGT SNOW  32  32 100 NE9       29.93S VSB 1   WCI  24
SIDNEY         LGT SNOW  33  31  92 N12       29.91S FOG     WCI  24
CRESCENT LAKE    N/A     32  31  98 NE6         N/A  WCI  26
BIG SPRINGS      N/A     34  33  95 NE3         N/A
$$

...OBSERVATIONS IN NORTHERN NEBRASKA AND FAR SOUTHERN SOUTH DAKOTA...

CITY           SKY/WX    TMP DP  RH WIND       PRES   REMARKS
WINNER         CLOUDY    44  38  79 E10       30.04F
VALENTINE      CLOUDY    39  37  92 E15       30.00S WCI  31
THEDFORD       LGT RAIN  40  38  96 NE13      29.95S WCI  32
AINSWORTH      CLOUDY    39  38  97 NE16      29.99S FOG     WCI  30
O`NEILL        CLOUDY    42  40  91 NE12      30.01F
ORD            CLOUDY    41  40  96 NE15      29.93S FOG
BROKEN BOW     LGT RAIN  40  38  93 NE28G36   29.88F WCI  29
VALENTINE NWR    N/A     38  38  99 NE13        N/A  WCI  30
BUTTE            N/A     42  40  91 NE9         N/A
HALSEY           N/A     39  38  99 NE9G18      N/A  WCI  33
CHAMBERS         N/A     41  40  97 N8G15       N/A
EWING            N/A     42  40  94 NE6         N/A
$$

...OBSERVATIONS IN SOUTHWEST NEBRASKA AND FAR NORTHEAST COLORADO...

CITY           SKY/WX    TMP DP  RH WIND       PRES   REMARKS
IMPERIAL       LGT SNOW  33  32  96 NE9       29.90R VSB 1   WCI  25
OGALLALA       LGT SNOW  33  32  95 NE9       29.91F WCI  25
NORTH PLATTE   RAIN      39  37  92 NE9       29.90S FOG     WCI  33
MCCOOK         RAIN      38  35  89 NE10      29.89F FOG     WCI  31
LEXINGTON      RAIN      41  39  91 NE21G30   29.87R
PAXTON           N/A     36  34  92 N5          N/A  WCI  32
STAPLETON        N/A     38  37  95 NE5G16      N/A  WCI  34
GOTHENBURG       N/A     40  37  89 NE9         N/A  WCI  34
CALLAWAY         N/A     39  38  97 E20         N/A  WCI  29
$$

...OBSERVATIONS IN CENTRAL LINCOLN COUNTY AREA...

CITY           SKY/WX    TMP DP  RH WIND       PRES   REMARKS
N.P. AIRPORT   RAIN      39  37  92 NE9       29.90S FOG     WCI  33
N.P. DOWNTOWN    N/A     38  36  94 NE5G12      N/A  WCI  34
N.P. SOUTHEAST   N/A     38  36  93 CALM        N/A
N.P. HILLCREST   N/A     38  37  95 NE12G18     N/A  WCI  30
$$

...SOME OBSERVATIONS FROM AROUND THE REGION...

CITY           SKY/WX    TMP DP  RH WIND       PRES   REMARKS
DENVER         LGT SNOW  33  30  88 N6        29.90R VSB 1   WCI  28
LARAMIE        LGT SNOW  28  27  96 NE3       29.89R FOG
CHEYENNE       LGT SNOW  31  30  96 N9        29.90R FOG     WCI  23
SCOTTSBLUFF    LGT SNOW  33  31  92 NW5       29.95S FOG     WCI  29
RAPID CITY     CLOUDY    41  36  82 NE7       30.05R
BISMARCK       CLEAR     48  35  60 NE9       30.12R
PIERRE         MOCLDY    42  37  82 E6        30.07R
SIOUX FALLS    CLOUDY    44  39  82 E7        30.05R
OMAHA          CLOUDY    48  41  76 E13G21    29.95F
GRAND ISLAND   CLOUDY    43  41  93 NE20G28   29.90R
KANSAS CITY    CLOUDY    52  48  86 E20G28    29.81F
WICHITA        CLOUDY    56  53  90 NE7       29.69F
OKLAHOMA CITY  CLOUDY    57  57 100 NW17      29.69R FOG
DALLAS         MOCLDY    76  68  76 NW15      29.59R
AMARILLO       CLEAR     45  42  89 N14       29.80S
DODGE CITY     CLOUDY    42  40  92 N14       29.80R
HAYS           CLOUDY    46  37  71 N10       29.82S
GOODLAND       LGT SNOW N/A N/A N/A N10       29.84S
$$




USA.gov is the U.S. government's official web portal to all federal, state and local government web resources and services.